Wind_Speed
3 3 4 6 7 7 7 6 5 4 4 3 3 2 2 3 4 4 3 1 1 1 3 9 8 6 20 20 13 6 17 26 19 13 13 7 18 12 9 13 8 9 5 13 11
3 3 4 5 7 7 7 6 6 5 5 4 3 2 2 2 3 4 4 1 1 1 4 6 13 8 9 17 12 8 16 24 14 14 9 14 12 12 14 11 13 8 8 6 11
2 3 3 4 5 6 6 6 6 6 5 5 3 2 1 2 3 4 3 3 2 1 3 2 9 7 6 16 6 4 16 17 17 10 1 7 5 3 13 14 10 8 5 7 15
3 3 3 3 4 4 5 5 5 5 4 3 3 4 7 3 1 7 11 4 0 4 7 10 12 6 7 12 12 19 14 16 18 13 12 9 6 17 21 9 8 5 3 12 13
5 4 4 3 3 3 4 4 4 4 3 2 4 7 11 2 1 4 7 4 5 12 14 9 6 7 11 12 17 18 14 15 11 13 4 1 9 9 11 13 10 6 8 12 16
6 6 5 5 4 3 3 3 3 3 3 4 6 11 9 1 9 13 13 5 9 10 10 9 13 16 18 17 13 6 10 14 9 8 6 10 4 7 7 10 8 7 6 5 18
6 6 6 5 5 5 5 6 5 5 6 7 10 14 1 3 2 14 7 8 6 5 8 5 12 13 11 10 4 12 13 14 13 9 11 15 15 8 14 15 12 10 12 13 19
7 6 6 7 7 7 7 6 6 7 7 8 11 5 1 9 15 8 1 6 10 13 12 10 11 18 10 9 12 12 16 17 19 18 18 17 15 15 20 19 14 10 12 19 19
6 6 7 7 8 8 8 8 7 6 9 11 9 4 5 15 6 3 4 7 6 9 10 9 9 8 10 9 12 12 19 19 24 19 27 20 16 15 14 11 14 8 15 21 23
5 5 5 6 6 7 10 13 14 6 10 9 6 8 9 6 7 14 5 2 4 1 5 6 8 3 3 8 17 19 20 21 22 18 28 15 12 16 17 19 17 14 14 21 25
5 5 5 5 6 7 10 7 6 4 5 3 1 4 5 10 6 6 9 6 8 7 7 5 10 13 8 11 17 22 18 20 9 15 19 20 15 13 19 22 18 15 15 19 27
3 3 3 3 4 4 1 4 2 7 8 8 5 7 10 8 2 6 9 6 6 13 10 16 18 15 11 6 9 14 17 17 13 13 14 8 10 15 13 20 19 19 16 19 29
1 1 3 4 6 7 8 11 7 8 8 3 3 6 4 4 3 2 10 6 5 6 9 13 13 3 6 9 10 11 14 11 14 3 6 11 17 18 18 26 25 19 19 16 20
2 1 3 4 5 10 7 8 5 6 8 4 7 4 10 5 4 10 8 5 1 9 11 8 7 8 11 7 12 10 9 10 12 14 14 13 17 21 20 23 25 18 14 17 16
3 2 4 5 9 5 1 11 7 2 4 6 7 5 3 6 3 7 12 3 8 13 7 12 12 6 5 10 10 11 13 12 16 19 22 22 12 12 21 3 10 4 9 13 13
5 2 4 6 5 2 3 5 2 1 5 8 6 5 5 8 5 6 7 9 7 8 5 11 10 16 11 14 9 13 20 20 17 19 16 5 15 20 23 25 18 14 21 18 16
4 3 2 7 10 8 3 5 3 4 1 5 8 4 6 10 5 6 6 9 10 12 11 14 14 6 7 11 8 11 11 6 8 6 5 12 14 16 6 15 4 8 6 12 13
6 5 2 3 8 2 4 6 4 2 5 7 2 5 4 8 8 4 7 10 11 7 4 8 9 7 4 3 8 13 13 5 2 3 7 1 3 5 5 5 11 10 13 13 13
8 7 6 5 2 3 6 5 5 11 5 7 3 5 8 12 9 6 10 11 3 4 4 6 10 15 14 16 6 11 13 12 10 15 13 11 12 4 11 10 11 3 10 1 2
9 7 4 10 5 9 8 11 7 11 7 8 5 7 16 8 6 8 7 3 3 4 5 6 18 22 9 13 13 12 15 12 7 3 3 9 6 6 11 9 7 6 1 5 7
9 5 4 6 14 10 14 12 11 9 11 6 5 7 9 10 9 7 7 3 11 5 9 8 7 17 12 7 8 12 7 14 11 8 4 1 5 9 12 7 10 10 6 4 6
8 6 5 13 14 13 10 10 12 7 7 5 5 7 7 10 9 9 11 11 9 12 19 15 14 15 18 18 13 4 7 12 13 3 4 3 0 4 5 6 4 1 2 6 11
10 10 8 11 13 9 14 10 12 12 4 3 4 2 6 6 7 5 9 12 16 19 17 16 4 7 8 3 7 11 16 12 10 5 5 3 6 11 8 12 15 9 7 11 17
5 4 3 6 5 10 13 7 4 6 9 11 8 12 7 8 7 11 13 15 16 13 11 13 9 10 10 18 22 26 14 15 11 15 20 15 12 4 11 8 10 10 14 16 19
5 5 6 11 4 7 4 7 7 4 5 8 9 3 9 10 13 12 9 5 11 10 9 9 7 6 11 15 17 21 21 19 12 13 15 16 11 6 1 5 9 14 19 22 30
12 12 13 14 9 9 7 8 7 8 14 7 5 9 6 7 6 8 13 9 1 1 5 1 8 11 18 15 15 19 17 15 14 14 7 10 7 6 7 13 18 22 26 32 38
16 18 18 15 6 3 3 10 9 9 13 3 9 15 13 12 11 9 12 15 18 19 21 21 19 14 16 13 16 13 13 9 4 5 2 7 6 4 11 18 22 30 35 40 38
Wind_Direction
198 204 205 203 202 201 201 202 206 213 223 236 247 257 261 268 267 272 305 310 296 328 91 79 83 145 181 194 190 156 262 272 282 350 58 309 159 103 96 137 111 147 134 136 133
190 191 193 193 195 195 199 204 209 217 227 241 244 240 245 272 287 287 289 312 21 238 161 150 91 55 196 189 194 229 262 268 296 321 35 163 172 158 140 161 160 202 214 205 169
160 172 178 177 186 189 195 203 210 218 223 227 230 218 144 118 326 21 16 28 353 189 166 291 137 152 162 190 208 237 253 295 308 311 82 74 203 165 86 186 204 215 192 150 115
112 133 158 171 179 186 196 203 210 217 222 224 210 167 142 102 248 1 358 327 349 115 100 104 104 134 208 231 252 256 271 281 282 296 283 278 166 144 167 137 178 177 120 144 123
84 101 117 135 159 178 193 200 203 205 205 190 174 159 155 59 268 22 347 344 165 119 88 69 40 335 297 283 295 263 249 262 264 286 189 261 157 165 167 120 133 128 134 129 173
69 76 87 95 106 124 141 145 148 146 133 120 147 153 150 14 340 314 314 201 164 144 87 28 296 267 268 272 299 255 256 292 269 265 234 257 185 271 195 185 163 173 162 180 200
70 76 80 81 90 104 111 112 112 114 114 112 125 133 100 126 137 301 341 176 182 227 181 226 246 245 227 263 329 280 285 260 276 257 237 247 238 301 264 247 245 248 234 216 224
66 73 75 73 76 92 99 91 96 104 108 116 126 128 101 31 344 275 9 11 356 346 195 222 244 223 214 241 297 285 265 263 265 246 234 234 236 253 251 239 239 245 232 211 222
61 68 75 78 79 85 86 82 78 91 109 111 106 37 46 13 336 2 267 210 225 259 275 295 312 214 187 275 285 266 256 252 255 252 225 224 230 238 209 229 245 239 225 219 234
64 69 73 75 82 89 96 89 67 79 126 103 59 41 36 35 300 330 302 296 201 225 319 313 327 322 247 264 273 270 267 264 301 260 208 222 228 234 248 253 253 211 219 228 234
68 75 72 75 86 107 115 84 52 54 197 303 147 89 359 311 315 354 349 31 31 345 338 325 259 264 300 272 269 283 292 333 343 159 182 214 239 239 251 241 246 244 219 234 241
54 76 82 84 92 83 51 328 311 253 301 222 190 263 231 229 288 314 347 21 342 289 302 284 254 286 293 274 299 300 308 316 313 257 229 219 240 251 258 254 261 238 222 228 241
13 88 112 102 99 70 50 16 23 257 294 252 345 256 295 278 84 206 303 307 300 277 294 296 286 286 339 318 296 310 312 316 331 211 248 281 278 288 294 269 250 226 212 223 244
354 178 166 133 117 58 3 347 300 292 296 245 214 236 217 246 254 219 311 346 308 310 298 298 306 325 321 307 299 320 333 302 319 326 330 317 309 307 303 311 234 217 200 218 222
358 232 190 174 133 80 329 310 305 26 319 176 177 213 264 178 327 284 341 138 311 301 323 296 332 328 339 348 312 295 322 331 317 315 314 312 312 321 336 275 149 138 192 218 241
349 314 216 184 197 38 237 247 38 9 258 173 214 272 179 236 220 266 325 345 342 319 338 303 316 289 285 296 321 313 302 320 319 306 293 352 360 302 347 319 261 260 258 215 226
318 332 260 215 225 246 232 158 357 237 296 229 228 170 258 242 201 246 266 296 302 295 301 326 332 230 310 312 327 343 289 331 337 341 269 268 263 270 335 67 48 248 192 214 225
298 280 286 231 269 307 201 151 257 246 289 285 230 300 295 302 218 272 268 305 295 260 295 350 346 12 333 334 319 315 319 276 295 321 301 281 173 155 60 83 92 89 170 191 239
291 280 265 246 193 25 216 208 241 331 276 359 313 297 296 259 237 321 270 284 319 278 225 323 286 282 313 279 281 300 298 309 310 301 304 135 113 306 269 313 264 294 256 218 138
286 287 245 253 271 290 252 250 284 304 288 281 321 311 329 2 296 286 298 254 7 14 318 291 307 299 276 307 306 301 287 316 350 30 339 356 85 80 124 125 97 74 116 247 261
288 266 273 248 270 269 258 253 310 304 295 281 258 266 302 335 338 328 346 200 245 282 317 325 298 304 301 322 303 313 321 341 336 286 186 292 154 209 234 229 246 269 289 309 269
276 154 199 274 273 276 267 300 281 268 302 332 302 332 313 296 314 310 328 314 315 325 331 322 300 296 292 300 305 263 283 286 291 270 281 340 238 94 146 126 126 220 294 285 282
265 242 254 296 291 258 275 283 255 263 278 284 242 324 293 288 308 294 278 309 312 312 317 323 263 336 311 249 319 322 311 297 272 278 298 288 181 193 201 242 263 296 285 280 275
273 238 337 228 320 269 273 243 262 280 282 285 263 250 287 290 266 288 296 281 278 305 319 328 299 267 270 283 303 306 283 294 293 269 269 242 290 303 303 260 197 256 263 268 282
211 186 264 219 236 234 254 249 257 288 319 304 249 294 294 301 273 279 308 315 297 302 353 352 338 304 286 289 301 304 303 303 285 285 285 274 266 317 96 231 245 256 268 287 297
232 238 221 244 258 278 268 298 292 285 278 252 248 264 268 312 322 290 269 264 273 141 254 227 274 281 288 294 293 317 310 303 311 301 272 68 108 211 251 274 284 297 310 314 315
229 239 237 226 227 233 298 309 270 274 254 266 293 277 260 263 245 259 265 265 266 281 288 279 289 286 287 303 305 308 299 312 65 54 69 97 84 284 285 293 307 309 310 311 311
Height
3165 3165 3166 3167 3169 3170 3171 3172 3173 3174 3175 3176 3177 3177 3178 3178 3178 3178 3179 3181 3181 3181 3181 3182 3182 3183 3185 3190 3192 3193 3195 3191 3190 3194 3188 3191 3191 3193 3195 3193 3189 3192 3194 3197 3201
3165 3166 3166 3167 3168 3169 3170 3171 3173 3174 3174 3175 3176 3176 3177 3177 3177 3178 3180 3179 3180 3181 3182 3183 3180 3184 3189 3191 3194 3193 3192 3188 3191 3196 3192 3185 3189 3193 3193 3190 3190 3194 3196 3198 3199
3165 3166 3166 3167 3168 3169 3170 3171 3172 3173 3174 3174 3175 3176 3176 3176 3177 3178 3179 3179 3180 3181 3182 3183 3183 3185 3189 3192 3192 3192 3191 3190 3191 3192 3194 3193 3193 3190 3190 3191 3191 3192 3195 3197 3198
3166 3166 3167 3167 3168 3169 3170 3170 3171 3172 3173 3173 3174 3175 3176 3177 3179 3177 3178 3179 3181 3182 3183 3185 3186 3187 3188 3189 3188 3191 3191 3190 3192 3190 3193 3193 3192 3189 3189 3188 3191 3192 3194 3196 3198
3167 3167 3167 3168 3168 3169 3170 3171 3171 3172 3172 3173 3174 3175 3176 3177 3177 3177 3179 3180 3182 3182 3184 3186 3186 3187 3187 3188 3188 3190 3191 3191 3189 3187 3192 3193 3192 3190 3190 3188 3190 3192 3194 3197 3196
3168 3168 3168 3168 3168 3169 3170 3170 3171 3172 3172 3173 3174 3175 3177 3178 3176 3177 3178 3179 3181 3181 3182 3184 3186 3185 3183 3185 3186 3187 3188 3187 3187 3187 3190 3190 3192 3188 3190 3192 3190 3193 3195 3197 3195
3170 3169 3169 3169 3169 3170 3171 3171 3172 3172 3173 3174 3175 3177 3178 3179 3178 3176 3178 3179 3179 3180 3181 3182 3181 3182 3184 3182 3183 3184 3184 3185 3185 3186 3187 3188 3189 3187 3187 3188 3189 3192 3194 3195 3193
3171 3171 3171 3171 3171 3171 3172 3173 3173 3174 3175 3175 3177 3178 3177 3177 3177 3177 3178 3178 3180 3181 3181 3180 3180 3181 3182 3184 3183 3183 3184 3184 3183 3183 3183 3185 3186 3187 3186 3186 3187 3187 3191 3190 3189
3173 3173 3173 3173 3173 3173 3174 3175 3175 3176 3176 3177 3178 3178 3177 3177 3178 3177 3178 3178 3180 3181 3181 3180 3180 3181 3182 3182 3182 3182 3180 3179 3178 3178 3178 3180 3183 3182 3182 3183 3185 3186 3188 3189 3186
3175 3175 3175 3175 3175 3175 3176 3176 3177 3178 3178 3178 3178 3180 3180 3180 3178 3179 3177 3177 3178 3179 3180 3181 3181 3182 3182 3182 3181 3179 3179 3178 3175 3172 3174 3178 3179 3178 3180 3179 3180 3182 3185 3183 3181
3176 3176 3177 3177 3177 3177 3177 3178 3180 3181 3179 3180 3179 3180 3182 3181 3181 3179 3177 3178 3179 3180 3180 3180 3182 3180 3180 3179 3179 3178 3177 3175 3172 3171 3174 3174 3176 3175 3176 3176 3175 3178 3180 3180 3177
3178 3178 3178 3178 3178 3178 3179 3178 3178 3180 3177 3177 3177 3178 3180 3180 3179 3180 3181 3180 3180 3180 3180 3182 3178 3178 3179 3178 3177 3175 3174 3174 3174 3173 3174 3173 3174 3175 3174 3172 3171 3172 3173 3175 3172
3178 3178 3178 3178 3179 3179 3178 3179 3178 3179 3177 3176 3175 3178 3179 3180 3179 3181 3181 3180 3179 3179 3178 3178 3179 3177 3177 3176 3175 3175 3175 3173 3174 3172 3172 3172 3172 3173 3173 3172 3168 3168 3169 3168 3169
3178 3178 3178 3179 3182 3179 3179 3179 3179 3178 3178 3178 3177 3178 3180 3179 3180 3180 3179 3180 3178 3179 3177 3177 3178 3176 3176 3176 3175 3175 3172 3171 3170 3170 3171 3171 3166 3170 3166 3165 3166 3165 3165 3164 3165
3178 3178 3178 3179 3180 3180 3181 3180 3179 3180 3178 3177 3177 3177 3178 3179 3180 3179 3180 3178 3178 3177 3178 3177 3176 3174 3175 3175 3173 3172 3170 3170 3169 3168 3168 3169 3166 3165 3167 3164 3163 3169 3163 3166 3167
3178 3178 3178 3179 3179 3179 3177 3178 3180 3182 3178 3176 3176 3176 3177 3177 3179 3178 3178 3179 3178 3177 3176 3176 3175 3174 3174 3172 3172 3171 3169 3167 3167 3167 3167 3169 3169 3164 3167 3166 3162 3162 3166 3167 3166
3178 3178 3178 3178 3178 3176 3178 3179 3181 3179 3178 3176 3175 3175 3176 3176 3177 3178 3178 3178 3177 3176 3175 3174 3173 3170 3172 3173 3172 3171 3170 3168 3169 3167 3166 3165 3167 3169 3167 3165 3160 3162 3161 3160 3162
3177 3177 3177 3177 3177 3177 3178 3180 3180 3176 3178 3176 3175 3175 3176 3176 3176 3177 3176 3177 3175 3173 3173 3174 3174 3173 3173 3173 3172 3171 3171 3169 3171 3170 3167 3165 3165 3171 3171 3170 3165 3164 3162 3162 3164
3175 3175 3176 3176 3176 3177 3179 3178 3177 3177 3177 3175 3174 3175 3176 3174 3175 3175 3175 3176 3173 3172 3174 3173 3172 3173 3172 3171 3171 3171 3169 3169 3166 3165 3165 3165 3167 3168 3169 3167 3167 3164 3164 3163 3164
3173 3174 3174 3173 3175 3177 3177 3176 3176 3176 3174 3175 3175 3175 3174 3174 3176 3175 3174 3174 3174 3172 3171 3172 3169 3169 3170 3170 3169 3169 3168 3166 3166 3168 3169 3165 3167 3169 3165 3166 3166 3164 3163 3163 3162
3172 3172 3173 3174 3174 3175 3174 3174 3174 3174 3173 3174 3173 3173 3173 3173 3172 3172 3172 3172 3171 3170 3171 3170 3170 3168 3167 3168 3167 3167 3165 3166 3168 3167 3166 3167 3166 3164 3164 3164 3163 3163 3162 3160 3159
3169 3170 3170 3171 3173 3172 3172 3173 3174 3173 3172 3172 3173 3172 3173 3172 3171 3171 3172 3170 3171 3169 3169 3169 3167 3166 3166 3165 3163 3164 3165 3167 3165 3165 3163 3165 3165 3163 3161 3161 3160 3161 3160 3158 3153
3166 3167 3169 3168 3169 3169 3170 3170 3171 3170 3171 3171 3171 3172 3172 3171 3172 3171 3171 3168 3169 3168 3168 3167 3166 3164 3163 3165 3163 3163 3164 3163 3161 3160 3161 3164 3164 3160 3158 3157 3157 3157 3156 3151 3144
3164 3164 3165 3167 3167 3167 3165 3167 3167 3167 3168 3169 3169 3169 3170 3170 3170 3170 3169 3166 3165 3165 3165 3165 3164 3165 3166 3165 3164 3162 3160 3159 3159 3158 3156 3157 3159 3157 3153 3152 3150 3151 3148 3145 3141
3161 3161 3161 3162 3161 3162 3163 3164 3164 3166 3168 3166 3166 3168 3169 3168 3167 3166 3167 3165 3164 3163 3162 3162 3162 3162 3161 3160 3160 3159 3157 3156 3155 3153 3154 3151 3152 3153 3149 3150 3146 3144 3143 3143 3139
3156 3157 3157 3158 3160 3161 3162 3164 3165 3165 3164 3164 3164 3164 3164 3164 3165 3163 3162 3162 3162 3162 3161 3160 3159 3158 3157 3157 3155 3154 3153 3152 3150 3148 3151 3147 3149 3150 3149 3144 3142 3139 3138 3134 3130
3151 3154 3155 3157 3158 3160 3162 3163 3163 3160 3161 3162 3161 3160 3161 3160 3161 3160 3160 3160 3161 3159 3159 3158 3157 3156 3152 3154 3152 3151 3151 3151 3147 3146 3145 3146 3148 3145 3142 3139 3136 3131 3131 3128 3125